Weather History for KFLY - November, 2012

Change the Weather History Date:

Sunday, November 4, 2012

  Actual Average (KCOS) Record (KCOS)
Temperature  
Mean Temperature 48 °F 43 °F  
Max Temperature 63 °F 56 °F 78 °F (1924)
Min Temperature 34 °F 30 °F 9 °F (1959)
Degree Days  
Heating Degree Days 16 22  
Month to date heating degree days 86  
Since 1 July heating degree days 760  
Cooling Degree Days 0 0  
Month to date cooling degree days 0  
Year to date cooling degree days 455  
Moisture  
Dew Point 18 °F    
Average Humidity 35    
Maximum Humidity 68    
Minimum Humidity 15    
Precipitation  
Precipitation 0.00 in 0.01 in 1.07 in (1946)
Month to date precipitation 0.06  
Year to date precipitation 15.86  
Snow  
Snow 0.00 in 0.10 in 1.50 in (1933)
Month to date snowfall 0.5  
Since 1 July snowfall 3.6  
Since 1 September snowfall 3.6  
Snow Depth -    
Sea Level Pressure  
Sea Level Pressure 30.25 in    
Wind  
Wind Speed 10 mph (NNW)    
Max Wind Speed 17 mph    
Max Gust Speed 25 mph    
Visibility 10 miles    
Events      
T = Trace of Precipitation, MM = Missing Value Source: NWS Daily Summary

Daily Weather History Graph

Daily Weather History Graph

Search for Another Location

Airport or City:

Trip Planner

Search our weather history database for the weather conditions in past years. The results will help you decide how hot, cold, wet, or windy it might be!

Date:

Astronomy

Nov. 04, 2012 Rise Set
Actual Time 6:29 AM MST 4:53 PM MST
Civil Twilight 6:01 AM MST 5:21 PM MST
Nautical Twilight 5:29 AM MST 5:53 PM MST
Astronomical Twilight 4:58 AM MST 6:24 PM MST
Moon 9:34 PM MST (11/4) 11:14 AM MST (11/4)
Length of Visible Light 11h 20m
Length of Day
10h 24m
Waning Gibbous, 71% of the Moon is Illuminated
Nov 4
Waning Gibbous
Nov 6
Last Quarter
Nov 13
New
Nov 20
First Quarter
Nov 28
Full

Hourly Weather History & Observations

Time (MST) Temp. Windchill Dew Point Humidity Pressure Visibility Wind Dir Wind Speed Gust Speed Precip Events Conditions
12:12 AM 35.2 °F 28.8 °F 25.7 °F 68% 30.23 in 10.0 mi West 8.1 mph - N/A   Clear
12:32 AM 36.0 °F 29.0 °F 25.7 °F 66% 30.23 in 10.0 mi WNW 9.2 mph - N/A   Clear
12:52 AM 36.7 °F 29.9 °F 25.0 °F 63% 30.23 in 10.0 mi WNW 9.2 mph - N/A   Clear
1:12 AM 35.6 °F 29.2 °F 23.2 °F 61% 30.23 in 10.0 mi WNW 8.1 mph - N/A   Clear
1:32 AM 34.2 °F 29.0 °F 22.1 °F 61% 30.23 in 10.0 mi NW 5.8 mph - N/A   Clear
1:52 AM 37.2 °F 30.6 °F 21.2 °F 52% 30.22 in 10.0 mi NW 9.2 mph - N/A   Clear
1:12 AM 38.1 °F 32.9 °F 20.3 °F 49% 30.22 in 10.0 mi NW 6.9 mph - N/A   Clear
1:32 AM 39.0 °F 33.4 °F 19.4 °F 45% 30.23 in 10.0 mi NNW 8.1 mph - N/A   Clear
1:52 AM 39.9 °F 35.8 °F 18.9 °F 43% 30.23 in 10.0 mi NNW 5.8 mph - N/A   Clear
2:12 AM 37.4 °F 30.8 °F 19.4 °F 48% 30.23 in 10.0 mi NW 9.2 mph - N/A   Clear
2:32 AM 37.0 °F 31.6 °F 19.0 °F 48% 30.23 in 10.0 mi NNW 6.9 mph - N/A   Clear
2:52 AM 39.4 °F 33.2 °F 16.9 °F 40% 30.22 in 10.0 mi West 9.2 mph - N/A   Clear
3:12 AM 37.0 °F 29.8 °F 17.2 °F 45% 30.22 in 10.0 mi NW 10.4 mph - N/A   Clear
3:32 AM 37.2 °F 31.2 °F 16.2 °F 42% 30.22 in 10.0 mi NW 8.1 mph - N/A   Clear
3:52 AM 38.7 °F 34.3 °F 15.1 °F 38% 30.22 in 10.0 mi NNW 5.8 mph - N/A   Clear
4:12 AM 38.3 °F 30.9 °F 14.7 °F 38% 30.22 in 10.0 mi NW 11.5 mph - N/A   Clear
4:32 AM 39.7 °F 33.2 °F 13.3 °F 34% 30.22 in 10.0 mi WNW 10.4 mph - N/A   Clear
4:52 AM 40.8 °F 35.6 °F 13.1 °F 32% 30.22 in 10.0 mi WNW 8.1 mph - N/A   Clear
5:12 AM 36.7 °F 30.5 °F 13.1 °F 38% 30.23 in 10.0 mi WNW 8.1 mph - N/A   Clear
5:32 AM 34.5 °F 27.3 °F 13.8 °F 43% 30.23 in 10.0 mi NW 9.2 mph - N/A   Clear
5:52 AM 34.5 °F 28.6 °F 14.0 °F 43% 30.23 in 10.0 mi WNW 6.9 mph - N/A   Clear
6:12 AM 35.6 °F 29.2 °F 13.1 °F 40% 30.23 in 10.0 mi WNW 8.1 mph - N/A   Clear
6:32 AM 44.8 °F 38.7 °F 12.6 °F 27% 30.23 in 10.0 mi NW 12.7 mph - N/A   Clear
6:52 AM 46.0 °F 40.2 °F 11.8 °F 25% 30.24 in 10.0 mi WNW 12.7 mph 19.6 mph N/A   Clear
7:12 AM 46.4 °F 41.1 °F 12.0 °F 25% 30.24 in 10.0 mi WNW 11.5 mph 19.6 mph N/A   Clear
7:32 AM 47.8 °F - 12.2 °F 24% 30.24 in 10.0 mi WNW 13.8 mph - N/A   Clear
7:52 AM 52.5 °F - 12.7 °F 21% 30.25 in 10.0 mi WNW 10.4 mph 19.6 mph N/A   Clear
8:12 AM 54.1 °F - 12.7 °F 19% 30.25 in 10.0 mi WNW 9.2 mph 18.4 mph N/A   Clear
8:32 AM 52.9 °F - 13.3 °F 21% 30.24 in 10.0 mi WNW 11.5 mph 19.6 mph N/A   Scattered Clouds
8:52 AM 52.7 °F - 13.5 °F 21% 30.24 in 10.0 mi WNW 9.2 mph 17.3 mph N/A   Scattered Clouds
9:12 AM 53.1 °F - 13.5 °F 21% 30.25 in 10.0 mi WNW 10.4 mph 16.1 mph N/A   Clear
9:32 AM 54.5 °F - 13.8 °F 20% 30.26 in 10.0 mi West 6.9 mph - N/A   Scattered Clouds
9:52 AM 56.7 °F - 13.1 °F 18% 30.26 in 10.0 mi West 11.5 mph 16.1 mph N/A   Mostly Cloudy
10:12 AM 59.9 °F - 12.0 °F 15% 30.26 in 10.0 mi NW 10.4 mph 19.6 mph N/A   Overcast
10:32 AM 58.1 °F - 11.7 °F 16% 30.25 in 10.0 mi West 8.1 mph 19.6 mph N/A   Scattered Clouds
10:52 AM 58.5 °F - 12.2 °F 16% 30.25 in 10.0 mi West 10.4 mph 17.3 mph N/A   Clear
11:12 AM 59.5 °F - 13.5 °F 16% 30.25 in 10.0 mi West 11.5 mph 17.3 mph N/A   Clear
11:32 AM 61.0 °F - 15.6 °F 17% 30.24 in 10.0 mi NNW 11.5 mph 16.1 mph N/A   Clear
11:52 AM 61.0 °F - 15.4 °F 17% 30.23 in 10.0 mi NNW 11.5 mph 19.6 mph N/A   Clear
12:12 PM 60.8 °F - 16.5 °F 18% 30.23 in 10.0 mi NNW 12.7 mph 18.4 mph N/A   Clear
12:32 PM 60.4 °F - 16.5 °F 18% 30.22 in 10.0 mi NNE 15.0 mph 21.9 mph N/A   Clear
12:52 PM 62.2 °F - 17.1 °F 17% 30.22 in 10.0 mi North 12.7 mph 23.0 mph N/A   Clear
1:12 PM 63.5 °F - 17.6 °F 17% 30.22 in 10.0 mi NNW 10.4 mph 20.7 mph N/A   Clear
1:32 PM 63.1 °F - 17.8 °F 17% 30.21 in 10.0 mi North 16.1 mph 23.0 mph N/A   Clear
1:52 PM 63.3 °F - 18.0 °F 17% 30.21 in 10.0 mi NNW 11.5 mph 19.6 mph N/A   Clear
2:12 PM 61.9 °F - 18.1 °F 18% 30.21 in 10.0 mi NNW 10.4 mph 21.9 mph N/A   Clear
2:32 PM 61.3 °F - 17.2 °F 18% 30.22 in 10.0 mi NNW 15.0 mph 25.3 mph N/A   Clear
2:52 PM 60.3 °F - 17.1 °F 19% 30.22 in 10.0 mi North 17.3 mph 24.2 mph N/A   Clear
3:12 PM 58.8 °F - 17.6 °F 20% 30.23 in 10.0 mi NNE 16.1 mph 25.3 mph N/A   Clear
3:32 PM 57.2 °F - 19.9 °F 24% 30.23 in 10.0 mi NNE 16.1 mph 23.0 mph N/A   Clear
3:52 PM 55.9 °F - 20.3 °F 25% 30.24 in 10.0 mi NNE 15.0 mph - N/A   Clear
4:12 PM 54.7 °F - 19.6 °F 25% 30.25 in 10.0 mi North 9.2 mph - N/A   Clear
4:32 PM 51.4 °F - 20.3 °F 29% 30.25 in 10.0 mi NNE 9.2 mph - N/A   Clear
4:52 PM 49.8 °F - 20.3 °F 31% 30.26 in 10.0 mi North 6.9 mph - N/A   Clear
5:12 PM 46.6 °F - 20.5 °F 36% 30.27 in 10.0 mi North 9.2 mph - N/A   Clear
5:32 PM 47.3 °F - 21.0 °F 35% 30.28 in 10.0 mi North 10.4 mph 16.1 mph N/A   Scattered Clouds
5:52 PM 46.2 °F 40.8 °F 21.9 °F 38% 30.29 in 10.0 mi North 11.5 mph - N/A   Scattered Clouds
6:12 PM 45.5 °F 40.3 °F 22.8 °F 41% 30.29 in 10.0 mi North 10.4 mph - N/A   Mostly Cloudy
6:32 PM 45.7 °F 41.5 °F 22.6 °F 40% 30.30 in 10.0 mi North 8.1 mph 17.3 mph N/A   Scattered Clouds
6:52 PM 44.8 °F 39.0 °F 23.5 °F 43% 30.30 in 10.0 mi North 11.5 mph 16.1 mph N/A   Clear
7:12 PM 44.2 °F 38.8 °F 23.9 °F 45% 30.30 in 10.0 mi North 10.4 mph 17.3 mph N/A   Clear
7:32 PM 44.2 °F 38.8 °F 24.1 °F 45% 30.31 in 10.0 mi North 10.4 mph 16.1 mph N/A   Clear
7:52 PM 44.2 °F 38.8 °F 23.9 °F 45% 30.32 in 10.0 mi North 10.4 mph 16.1 mph N/A   Clear
8:12 PM 43.9 °F 36.8 °F 24.3 °F 46% 30.32 in 10.0 mi North 15.0 mph 19.6 mph N/A   Clear
8:32 PM 43.7 °F 37.3 °F 24.1 °F 46% 30.33 in 10.0 mi North 12.7 mph 18.4 mph N/A   Clear
8:52 PM 42.8 °F 35.8 °F 24.3 °F 48% 30.34 in 10.0 mi North 13.8 mph 17.3 mph N/A   Clear
9:12 PM 43.0 °F 36.8 °F 24.3 °F 48% 30.35 in 10.0 mi North 11.5 mph - N/A   Clear
9:32 PM 42.1 °F 35.7 °F 24.3 °F 49% 30.35 in 10.0 mi North 11.5 mph - N/A   Clear
9:52 PM 41.7 °F 34.4 °F 24.3 °F 50% 30.36 in 10.0 mi North 13.8 mph 19.6 mph N/A   Clear
10:12 PM 40.6 °F 33.0 °F 24.3 °F 52% 30.35 in 10.0 mi North 13.8 mph - N/A   Clear
10:32 PM 39.9 °F 32.5 °F 24.8 °F 55% 30.36 in 10.0 mi North 12.7 mph - N/A   Clear
10:52 PM 39.2 °F 31.2 °F 25.3 °F 58% 30.36 in 10.0 mi North 13.8 mph 20.7 mph N/A   Clear